Showing default

SPACEMOBILE-011, 100242

Orbit data source: Space-Track

SPACEMOBILE-011, 100242 is a payload satellite owned by AST & Science (US) in LEO that was launched on Wed, 05 Aug 2026 UTC launched from the Air Force Eastern Test Range (AFETR). Payload-class satellites include a variety of spacecraft equipped with specific instruments for various scientific and technological missions. These include communications satellites like Starlink; space stations such as the ISS; scientific satellites like the Hubble; Earth observation satellites from companies like Planet Labs, Umbra, and HawkEye 360; GPS; miniature CubeSats for education and research; and military/defense satellites.

Loading next visibility...
Identifier
100242, 2026-179C
Orbit
LEO
Country
Flag of USUS
Related business
Manufacturer
AST & Science
Mission
Operational spacecraft
Bus & Motor
BB BLOCK-2, EP
Mass
6,740 kg wet, 5,830 kg dry
Launch date (UTC)
2026-08-05 (1 month ago)
Launch vehicle
Unknown
Launch site
Air Force Eastern Test Range (AFETR)
Object type
Payload
Rocket body
Debris
Shape & HBR
CYL + 2 PAN + PLATE, 5.0 m
Radar Cross Section
Large (>1 m²)

Expand to show TLE details & history
Last TLE update: 14 hours ago

TLE from 14 hours ago
0 SPACEMOBILE-011
1 A0242U 26179C   26251.20189279  .00000686  00000-0  54924-4 0  9995
2 A0242  52.9960 174.1183 0007132  84.8111 275.3694 15.13332295  5131
Epoch: 2026-09-08T04:50Z
TLE epoch observation values (Epoch: 2026-09-08T04:50:43.537Z)
Latitude
-0°
Longitude
114.1652°
Altitude
526.465 km
Speed
7.601 km/s
True Right ascension
11h 36m 28s
True Declination
0° 00' 00"
Sunlit
Object was in daylight at epoch
Visualization orbit readout
Latitude
Unknown
Longitude
Unknown
Altitude
Unknown
Speed
Unknown
Apparent Right ascension
Unknown
Apparent Declination
Unknown
Sunlit
N/A
Visualization observer readout
Local Sidereal Time
11:08:39
Azimuth
Unknown
Elevation
Unknown
Doppler factor
Unknown
Orbital elements
Apogee altitude
531.251 km
Perigee altitude
521.403 km
Semi-major axis
6,904.464 km
Eccentricity
0.00071
Inclination
52.996°
RAAN
174.1183°
Arg. of periapsis
84.8111°
True anomaly
275.28803°
Mean anomaly
275.3694°
Eccentric anomaly
275.32871°
Mean motion
3.7831 °/min
Orbital period
95.16 mins
BSTAR
0.000054924
Loading maneuver chart data...
Computing Atmospheric mass density...
Loading historical data...
Loading historical data...
Loading historical data...
Loading historical data...
Loading historical data...
Loading historical data...
Loading historical data...
Other satellites on launch #179 in the year 2026 (2026-08-05 UTC)

Documentation

Showing up to 5 results
|